Location: Capvern
(43.1036°N, 0.3160°E)
Time: 04:46:36
(UTC+00:00)

SL-8 R/B - Pass Details

Date: 16 October 2021
Orbit: 656 x 667 km, 48.4° (Epoch: 02 December)

Event Time Altitude Azimuth Distance (km) Brightness Sun altitude
Rises 18:45:36 0° 224° (SW) 2,972 7.7 -17.4°
Reaches altitude 10° 18:48:00 10° 218° (SW) 2,065 6.7 -17.9°
Maximum altitude 18:52:34 48° 145° (SE) 862 4.0 -18.7°
Enters shadow 18:53:41 40° 105° (ESE) 975 4.0 -18.9°
